• In Kazakhstan
  • List of Countries
  • For 7 days
  • Water Temperature
  • Satellite Maps
  • Weather Map
  • News
  • Weather Widgets
  • user-avatar
    Login

    Hourly Weather Cambridge

    Today, 27 September, Wednesday

    Time Temperature Precipitation Wind Pressure Humidity
    00:00 +22°C° 0 mm 1 mps 761 mmHg 89%
    01:00 +22°C° 0 mm 1 mps 760 mmHg 91%
    02:00 +22°C° 0 mm 1 mps 760 mmHg 91%
    03:00 +21°C° 0 mm 1 mps 760 mmHg 92%
    04:00 +21°C° 0 mm 1 mps 760 mmHg 93%
    05:00 +22°C° 0 mm 1 mps 760 mmHg 90%
    06:00 +23°C° 0 mm 1 mps 760 mmHg 88%
    07:00 +23°C° 0 mm 1 mps 760 mmHg 85%
    08:00 +26°C° 0 mm 1 mps 760 mmHg 76%
    09:00 +28°C° 0 mm 1 mps 759 mmHg 67%
    10:00 +31°C° 0 mm 2 mps 759 mmHg 57%
    11:00 +31°C° 0 mm 2 mps 759 mmHg 54%
    12:00 +33°C° 0 mm 3 mps 758 mmHg 51%
    13:00 +34°C° 0 mm 4 mps 757 mmHg 48%
    14:00 +33°C° 0.3 mm 4 mps 757 mmHg 53%
    15:00 +32°C° 0.3 mm 4 mps 757 mmHg 58%
    16:00 +32°C° 0.3 mm 4 mps 756 mmHg 63%
    17:00 +29°C° 0 mm 4 mps 756 mmHg 69%
    18:00 +27°C° 0 mm 3 mps 756 mmHg 75%
    19:00 +26°C° 0 mm 3 mps 756 mmHg 82%
    20:00 +25°C° 0 mm 3 mps 756 mmHg 85%
    21:00 +25°C° 0 mm 3 mps 756 mmHg 88%
    22:00 +24°C° 0 mm 3 mps 755 mmHg 91%
    23:00 +24°C° 0.1 mm 3 mps 755 mmHg 91%

    Tomorrow, 28 September, Thursday

    Time Temperature Precipitation Wind Pressure Humidity
    00:00 +24°C° 0.1 mm 3 mps 755 mmHg 91%
    01:00 +24°C° 0.1 mm 3 mps 755 mmHg 91%
    02:00 +24°C° 0.1 mm 3 mps 754 mmHg 92%
    03:00 +24°C° 0.1 mm 3 mps 754 mmHg 93%
    04:00 +23°C° 0.1 mm 2 mps 754 mmHg 94%
    05:00 +24°C° 0.1 mm 2 mps 754 mmHg 92%
    06:00 +24°C° 0.1 mm 2 mps 754 mmHg 90%
    07:00 +24°C° 0.1 mm 2 mps 754 mmHg 87%
    08:00 +25°C° 0 mm 3 mps 754 mmHg 76%
    09:00 +26°C° 0 mm 4 mps 754 mmHg 65%
    10:00 +27°C° 0 mm 5 mps 754 mmHg 54%
    11:00 +27°C° 0 mm 5 mps 754 mmHg 47%
    12:00 +27°C° 0 mm 5 mps 754 mmHg 40%
    13:00 +28°C° 0 mm 5 mps 754 mmHg 33%
    14:00 +27°C° 0 mm 5 mps 754 mmHg 34%
    15:00 +26°C° 0 mm 4 mps 753 mmHg 36%
    16:00 +25°C° 0 mm 4 mps 753 mmHg 37%
    17:00 +22°C° 0 mm 4 mps 754 mmHg 40%
    18:00 +21°C° 0 mm 4 mps 755 mmHg 44%
    19:00 +19°C° 0 mm 4 mps 756 mmHg 47%
    20:00 +17°C° 0 mm 5 mps 756 mmHg 49%
    21:00 +16°C° 0 mm 5 mps 757 mmHg 50%
    22:00 +15°C° 0 mm 5 mps 757 mmHg 52%
    23:00 +14°C° 0 mm 5 mps 757 mmHg 54%

    Day after tomorrow, 29 September, Friday

    Time Temperature Precipitation Wind Pressure Humidity
    00:00 +14°C° 0 mm 5 mps 757 mmHg 56%
    01:00 +13°C° 0 mm 4 mps 758 mmHg 58%
    02:00 +12°C° 0 mm 4 mps 758 mmHg 58%
    03:00 +12°C° 0 mm 4 mps 758 mmHg 59%
    04:00 +11°C° 0 mm 4 mps 758 mmHg 59%
    05:00 +11°C° 0 mm 4 mps 759 mmHg 58%
    06:00 +11°C° 0 mm 4 mps 759 mmHg 57%
    07:00 +12°C° 0 mm 4 mps 759 mmHg 56%
    08:00 +13°C° 0 mm 4 mps 760 mmHg 49%
    09:00 +15°C° 0 mm 4 mps 760 mmHg 43%
    10:00 +17°C° 0 mm 4 mps 760 mmHg 37%
    11:00 +18°C° 0 mm 4 mps 760 mmHg 34%
    12:00 +19°C° 0 mm 4 mps 759 mmHg 31%
    13:00 +20°C° 0 mm 3 mps 759 mmHg 29%
    14:00 +20°C° 0 mm 3 mps 759 mmHg 30%
    15:00 +20°C° 0 mm 3 mps 759 mmHg 32%
    16:00 +20°C° 0 mm 3 mps 759 mmHg 33%
    17:00 +18°C° 0 mm 3 mps 760 mmHg 37%
    18:00 +17°C° 0 mm 3 mps 760 mmHg 42%
    19:00 +15°C° 0 mm 2 mps 761 mmHg 46%
    20:00 +14°C° 0 mm 2 mps 761 mmHg 47%
    21:00 +13°C° 0 mm 3 mps 762 mmHg 48%
    22:00 +12°C° 0 mm 3 mps 762 mmHg 49%
    23:00 +12°C° 0.1 mm 3 mps 762 mmHg 54%

    30 September, Saturday

    Time Temperature Precipitation Wind Pressure Humidity
    00:00 +11°C° 0.1 mm 3 mps 763 mmHg 59%
    01:00 +11°C° 0.1 mm 3 mps 763 mmHg 64%
    02:00 +11°C° 0.4 mm 3 mps 763 mmHg 69%
    03:00 +10°C° 0.4 mm 4 mps 764 mmHg 74%
    04:00 +10°C° 0.4 mm 4 mps 764 mmHg 79%
    05:00 +10°C° 0.7 mm 4 mps 765 mmHg 81%
    06:00 +9°C° 0.7 mm 3 mps 765 mmHg 84%
    07:00 +9°C° 0.7 mm 3 mps 766 mmHg 86%
    08:00 +11°C° 0.1 mm 3 mps 766 mmHg 77%
    09:00 +12°C° 0.1 mm 4 mps 767 mmHg 67%
    10:00 +14°C° 0.1 mm 4 mps 767 mmHg 58%
    11:00 +14°C° 0.1 mm 4 mps 767 mmHg 55%
    12:00 +15°C° 0.1 mm 4 mps 767 mmHg 53%
    13:00 +15°C° 0.1 mm 4 mps 767 mmHg 50%
    14:00 +15°C° 0 mm 4 mps 767 mmHg 51%
    15:00 +16°C° 0 mm 3 mps 767 mmHg 51%
    16:00 +14°C° 0 mm 3 mps 767 mmHg 52%
    17:00 +13°C° 0 mm 3 mps 768 mmHg 57%
    18:00 +13°C° 0 mm 2 mps 769 mmHg 62%
    19:00 +10°C° 0 mm 2 mps 769 mmHg 67%
    20:00 +11°C° 0 mm 1 mps 770 mmHg 68%
    21:00 +10°C° 0 mm 1 mps 770 mmHg 70%
    22:00 +10°C° 0 mm 1 mps 770 mmHg 71%
    23:00 +9°C° 0 mm 1 mps 770 mmHg 71%

    1 October, Sunday

    Time Temperature Precipitation Wind Pressure Humidity
    00:00 +9°C° 0 mm 1 mps 770 mmHg 72%
    01:00 +9°C° 0 mm 1 mps 770 mmHg 72%
    02:00 +7°C° 0 mm 2 mps 771 mmHg 71%
    03:00 +7°C° 0 mm 2 mps 771 mmHg 70%
    04:00 +7°C° 0 mm 2 mps 771 mmHg 69%
    05:00 +7°C° 0 mm 2 mps 771 mmHg 66%
    06:00 +7°C° 0 mm 2 mps 771 mmHg 63%
    07:00 +8°C° 0 mm 2 mps 772 mmHg 59%
    08:00 +12°C° 0 mm 2 mps 771 mmHg 52%
    09:00 +14°C° 0 mm 2 mps 771 mmHg 44%
    10:00 +17°C° 0 mm 2 mps 771 mmHg 36%
    11:00 +19°C° 0 mm 1 mps 771 mmHg 32%
    12:00 +20°C° 0 mm 1 mps 770 mmHg 29%
    13:00 +21°C° 0 mm 1 mps 770 mmHg 25%
    14:00 +21°C° 0 mm 1 mps 770 mmHg 27%
    15:00 +21°C° 0 mm 1 mps 769 mmHg 28%
    16:00 +20°C° 0 mm 1 mps 769 mmHg 30%
    17:00 +18°C° 0 mm 1 mps 769 mmHg 36%
    18:00 +15°C° 0 mm 2 mps 770 mmHg 43%
    19:00 +13°C° 0 mm 2 mps 770 mmHg 49%
    20:00 +12°C° 0 mm 2 mps 770 mmHg 52%
    21:00 +12°C° 0 mm 2 mps 770 mmHg 55%
    22:00 +10°C° 0 mm 2 mps 770 mmHg 57%
    23:00 +10°C° 0 mm 2 mps 770 mmHg 56%

    2 October, Monday

    Time Temperature Precipitation Wind Pressure Humidity
    00:00 +10°C° 0 mm 2 mps 770 mmHg 54%
    01:00 +9°C° 0 mm 2 mps 770 mmHg 52%
    02:00 +9°C° 0 mm 2 mps 770 mmHg 52%
    03:00 +9°C° 0 mm 2 mps 771 mmHg 52%
    04:00 +9°C° 0 mm 2 mps 771 mmHg 53%
    05:00 +9°C° 0 mm 2 mps 771 mmHg 52%
    06:00 +10°C° 0 mm 2 mps 771 mmHg 52%
    07:00 +11°C° 0 mm 1 mps 771 mmHg 51%
    08:00 +14°C° 0 mm 1 mps 771 mmHg 45%
    09:00 +18°C° 0 mm 1 mps 771 mmHg 39%
    10:00 +21°C° 0 mm 1 mps 772 mmHg 33%
    11:00 +22°C° 0 mm 1 mps 771 mmHg 31%
    12:00 +24°C° 0 mm 1 mps 771 mmHg 29%
    13:00 +25°C° 0 mm 1 mps 771 mmHg 27%
    14:00 +24°C° 0 mm 1 mps 771 mmHg 30%
    15:00 +23°C° 0 mm 1 mps 771 mmHg 33%
    16:00 +23°C° 0 mm 1 mps 771 mmHg 36%
    17:00 +19°C° 0 mm 2 mps 771 mmHg 42%
    18:00 +17°C° 0 mm 2 mps 771 mmHg 49%
    19:00 +15°C° 0 mm 2 mps 772 mmHg 56%
    20:00 +14°C° 0 mm 1 mps 772 mmHg 59%
    21:00 +14°C° 0 mm 1 mps 772 mmHg 62%
    22:00 +13°C° 0 mm 1 mps 772 mmHg 66%
    23:00 +12°C° 0 mm 1 mps 772 mmHg 66%
    Show more